Location: Arrodets-la-Barthe
(43.0306°N, 0.2829°E)
Time: 16:20:46
(UTC+00:00)

STRAND 1 - Pass Details

Date: 03 April 2023
Orbit: 767 x 779 km, 98.4° (Epoch: 04 June)

Event Time Altitude Azimuth Distance (km) Brightness Sun altitude
Rises 19:05:07 0° 11° (N) 3,248 ? -7.6°
Reaches altitude 10° 19:07:26 10° 9° (N) 2,317 ? -8.0°
Maximum altitude 19:12:30 70° 287° (WNW) 819 ? -8.9°
Drops below altitude 10° 19:17:32 10° 204° (SSW) 2,301 ? -9.8°
Sets 19:19:51 0° 202° (SSW) 3,224 ? -10.2°
